[[{"header":{"parameterUnit":"m.s-1","parameterCategory":2,"la1":30.2991,"la2":30.254,"lo1":-89.0895,"lo2":-89.0444,"dy":0.0017,"dx":0.0017,"nx":28,"ny":28,"refTime":"2023-11-02T09:00:00:Z","depth":"0","parameterNumber":2,"parameterNumberName":"U-component_of_CURRENTS"},"data":[0,0,0,0,0,0,0,0,0,0,0,0,0,0,0,0,0,0,0,0,0,0,0,0,0,0,0,0,0,0,0,0,0,0,0,0,0,0,0,0,0,0,0,0,0,0,0,0,0,0,0,0,0,0,0,0,0,0,-0.2916,-0.2916,0,-0.2954,-0.2954,-0.2955,-0.2921,-0.292,-0.2918,-0.2917,-0.2883,-0.2883,-0.2883,0,0,0,0,0,0,0,0,0,0,0,0,0,-0.2819,-0.2821,-0.2916,-0.2916,-0.2917,-0.2954,-0.2954,-0.2955,-0.2921,-0.2919,-0.2918,-0.2917,-0.2883,-0.2883,-0.2883,0,0,0,0,0,0,0,0,0,0,0,0,0,-0.2857,-0.2821,-0.2915,-0.2906,-0.2906,-0.2954,-0.2954,-0.2955,-0.2921,-0.2919,-0.2918,-0.2916,-0.2882,-0.2883,-0.2883,-0.292,0,0,-0.2884,-0.2884,0,0,0,0,0,0,0,0,-0.2855,-0.2861,-0.2907,-0.2907,-0.2907,-0.2933,-0.2908,-0.294,-0.2922,-0.2913,-0.2917,-0.2915,-0.2896,-0.2895,-0.2903,-0.2918,-0.2916,-0.2884,-0.2884,-0.2884,-0.2884,0,0,0,0,0,0,0,-0.2853,-0.2859,-0.2928,-0.2908,-0.2908,-0.2903,-0.2906,-0.2914,-0.291,-0.2914,-0.2912,-0.2921,-0.2894,-0.2903,-0.2902,-0.2916,-0.2884,-0.2884,-0.2884,-0.2884,-0.293,-0.2931,0,0,0,0,0,0,-0.2855,-0.2857,-0.2927,-0.293,-0.2879,-0.2906,-0.2909,-0.2924,-0.2912,-0.291,-0.2922,-0.2919,-0.2904,-0.2902,-0.2901,-0.2927,-0.2884,-0.2884,-0.2884,-0.2929,-0.293,-0.2931,0,0,0,0,0,0,-0.2853,-0.2861,-0.2926,-0.2895,-0.2903,-0.291,-0.2927,-0.2926,-0.2927,-0.292,-0.2915,-0.2923,-0.2902,-0.29,-0.291,-0.2926,-0.2884,-0.2885,-0.2927,-0.2929,-0.293,-0.2991,0,0,0,0,0,0,-0.285,-0.286,-0.2868,-0.2896,-0.2905,-0.2955,-0.2929,-0.2928,-0.2937,-0.2933,-0.2919,-0.2914,-0.2901,-0.291,-0.291,-0.2926,-0.2885,-0.2926,-0.2928,-0.293,-0.2987,-0.2994,-0.3,0,0,0,0,0,-0.2846,-0.2866,-0.2869,-0.2877,-0.2918,-0.2956,-0.2961,-0.2957,-0.2939,-0.2949,-0.2939,-0.2914,-0.2922,-0.2912,-0.2912,-0.2927,-0.2925,-0.2927,-0.293,-0.2985,-0.2993,-0.3,0,0,0,0,0,0,-0.2826,-0.2866,-0.2869,-0.2898,-0.2926,-0.2951,-0.2959,-0.2961,-0.2964,-0.2953,-0.2935,-0.2932,-0.2945,-0.2932,-0.2921,-0.2946,-0.2917,-0.292,-0.2959,-0.2966,-0.2973,-0.2971,-0.2885,0,0,0,0,0,-0.2829,-0.285,-0.289,-0.291,-0.2926,-0.2943,-0.2956,-0.296,-0.297,-0.2969,-0.2961,-0.2954,-0.296,-0.2958,-0.296,-0.298,-0.2957,-0.2987,-0.2993,-0.2999,-0.2998,-0.299,-0.2995,-0.2939,-0.2939,-0.2939,0,0,-0.2824,-0.2849,-0.2859,-0.2906,-0.2923,-0.296,-0.2945,-0.2971,-0.2995,-0.2966,-0.2984,-0.2978,-0.2971,-0.2991,-0.2995,-0.2978,-0.3003,-0.3002,-0.3007,-0.3003,-0.2993,-0.2998,-0.3003,-0.294,-0.294,-0.294,0,0,-0.2832,-0.2851,-0.2875,-0.2907,-0.2945,-0.2965,-0.2974,-0.3005,-0.301,-0.3038,-0.3021,-0.3028,-0.3034,-0.3036,-0.3037,-0.3082,-0.3039,-0.3076,-0.3105,-0.3098,-0.3102,-0.3106,-0.3081,-0.3082,-0.3076,-0.3076,-0.3076,0,-0.2823,-0.286,-0.2887,-0.2927,-0.295,-0.2969,-0.3004,-0.3028,-0.3055,-0.3062,-0.3046,-0.3062,-0.3058,-0.3084,-0.3098,-0.3096,-0.3074,-0.3077,-0.3105,-0.3108,-0.3111,-0.3085,-0.3085,-0.3079,-0.3079,-0.3079,-0.3078,0,-0.2856,-0.2887,-0.2905,-0.2959,-0.2994,-0.3022,-0.3068,-0.3092,-0.3095,-0.311,-0.3131,-0.3131,-0.3133,-0.314,-0.3134,-0.3155,-0.3127,-0.3117,-0.3085,-0.312,-0.309,-0.3089,-0.3084,-0.3083,-0.3082,-0.3081,0,0,-0.2821,-0.2909,-0.2912,-0.2938,-0.3009,-0.3037,-0.3091,-0.3136,-0.3158,-0.3176,-0.3197,-0.3216,-0.32,-0.3201,-0.3193,-0.3194,-0.3198,-0.3163,-0.3161,-0.3136,-0.3164,-0.3071,-0.306,-0.3189,-0.3189,-0.3189,-0.3135,0,-0.2828,-0.2892,-0.2943,-0.2997,-0.3029,-0.3079,-0.3131,-0.3176,-0.3199,-0.3227,-0.3231,-0.3245,-0.3229,-0.3226,-0.3228,-0.321,-0.3199,-0.3213,-0.3135,-0.3133,-0.3044,-0.3058,-0.2933,-0.2868,-0.3133,-0.3133,-0.3133,0,-0.2832,-0.2876,-0.2928,-0.301,-0.303,-0.3071,-0.3135,-0.318,-0.3238,-0.3257,-0.3272,-0.3274,-0.3286,-0.3263,-0.3239,-0.3245,-0.3206,-0.3187,-0.3184,-0.3073,-0.3038,-0.2876,-0.2855,-0.2838,-0.3131,-0.3131,-0.3131,0,-0.2767,-0.2858,-0.2889,-0.2918,-0.3023,-0.3052,-0.3099,-0.3172,-0.3206,-0.3259,-0.3277,-0.3298,-0.3288,-0.3268,-0.3223,-0.323,-0.3181,-0.3184,-0.3062,-0.3054,-0.292,-0.29,-0.2869,-0.3156,-0.3156,-0.3156,-0.3156,0,-0.2739,-0.2761,-0.2859,-0.2876,-0.292,-0.3006,-0.3052,-0.3109,-0.3183,-0.3208,-0.3265,-0.3276,-0.3285,-0.3261,-0.3228,-0.3129,-0.3177,-0.306,-0.3034,-0.2937,-0.2919,-0.2874,-0.2899,-0.3154,-0.3154,-0.3155,-0.3155,0,-0.265,-0.2714,-0.2756,-0.2859,-0.2888,-0.291,-0.3014,-0.304,-0.3127,-0.316,-0.3174,-0.3244,-0.3209,-0.3198,-0.3158,-0.3106,-0.2984,-0.2995,-0.287,-0.283,-0.2697,-0.2729,-0.2637,-0.2565,-0.2857,-0.2854,-0.2852,0,-0.2606,-0.262,-0.2716,-0.2726,-0.2764,-0.2821,-0.2856,-0.2982,-0.3014,-0.3123,-0.3119,-0.3133,-0.3099,-0.3018,-0.2946,-0.2857,-0.286,-0.2696,-0.269,-0.2664,-0.2682,-0.2695,-0.2643,-0.2539,-0.2534,-0.2531,-0.2528,0,-0.2509,-0.2542,-0.2568,-0.2604,-0.2635,-0.2688,-0.2749,-0.2778,-0.2906,-0.2945,-0.2968,-0.2958,-0.2905,-0.2771,-0.2676,-0.2614,-0.2624,-0.2613,-0.2622,-0.2455,-0.2431,-0.2355,-0.2604,-0.2494,-0.2497,-0.25,-0.2502,-0.2503,-0.2406,-0.2401,-0.243,-0.245,-0.2488,-0.251,-0.2493,-0.2575,-0.2606,-0.2623,-0.273,-0.268,-0.2638,-0.2486,-0.243,-0.2297,-0.2361,-0.2234,-0.2282,-0.2303,-0.221,-0.2375,-0.2216,-0.2217,-0.2219,-0.222,-0.2221,0,-0.2263,-0.2263,-0.2271,-0.2282,-0.2256,-0.234,-0.2376,-0.2329,-0.2296,-0.2381,-0.2368,-0.2356,-0.2222,-0.2214,-0.21,-0.2005,-0.1966,-0.1967,-0.1975,-0.1942,-0.2103,-0.2066,-0.1823,-0.1823,-0.1824,-0.1824,-0.1824,-0.1824,-0.2175,-0.2121,-0.2134,-0.2036,-0.2038,-0.1951,-0.1932,-0.1896,-0.1922,-0.1894,-0.1938,-0.202,-0.2031,-0.2119,-0.1985,-0.189,-0.1856,-0.1774,-0.1823,-0.1974,-0.2004,-0.2033,-0.2004,-0.1752,-0.1752,-0.1575,-0.1574,-0.1574]},{"header":{"parameterUnit":"m.s-1","parameterCategory":2,"la1":30.2991,"la2":30.254,"lo1":-89.0895,"lo2":-89.0444,"dy":0.0017,"dx":0.0017,"nx":28,"ny":28,"refTime":"2023-11-02T09:00:00:Z","depth":"0","parameterNumber":3,"parameterNumberName":"V-component_of_CURRENTS"},"data":[0,0,0,0,0,0,0,0,0,0,0,0,0,0,0,0,0,0,0,0,0,0,0,0,0,0,0,0,0,0,0,0,0,0,0,0,0,0,0,0,0,0,0,0,0,0,0,0,0,0,0,0,0,0,0,0,0,0,-0.0339,-0.0338,0,-0.0224,-0.0223,-0.0221,-0.0144,-0.0144,-0.0143,-0.0143,-0.0002,0.0002,0.0005,0,0,0,0,0,0,0,0,0,0,0,0,0,-0.0421,-0.0421,-0.0339,-0.0337,-0.0336,-0.0224,-0.0223,-0.0221,-0.0144,-0.0144,-0.0143,-0.0143,-0.0003,0.0001,0.0005,0,0,0,0,0,0,0,0,0,0,0,0,0,-0.0353,-0.042,-0.0339,-0.0286,-0.028,-0.0225,-0.0223,-0.022,-0.0144,-0.0143,-0.0143,-0.0142,-0.0004,0.0001,0.0006,0.0026,0,0,0.0022,0.0024,0,0,0,0,0,0,0,0,-0.0357,-0.035,-0.0295,-0.0289,-0.0283,-0.0199,-0.02,-0.0137,-0.0144,-0.0194,-0.0143,-0.0142,-0.0067,-0.0056,-0.0034,0.0033,0.0039,0.0022,0.0025,0.0027,0.0029,0,0,0,0,0,0,0,-0.0362,-0.0354,-0.0292,-0.0294,-0.0286,-0.0244,-0.0234,-0.0187,-0.0133,-0.0189,-0.0184,-0.0174,-0.0063,-0.0039,-0.003,0.0041,0.0022,0.0026,0.003,0.0032,0.0156,0.0156,0,0,0,0,0,0,-0.0384,-0.0359,-0.0295,-0.0288,-0.0321,-0.0243,-0.0232,-0.0225,-0.0134,-0.012,-0.0175,-0.0171,-0.0048,-0.0036,-0.0025,0.0007,0.0027,0.0032,0.0035,0.0156,0.0156,0.0156,0,0,0,0,0,0,-0.0386,-0.0379,-0.03,-0.0322,-0.0309,-0.0243,-0.0236,-0.0223,-0.02,-0.0123,-0.0109,-0.0165,-0.0047,-0.0032,0.0017,0.0013,0.0034,0.0039,0.0155,0.0156,0.0156,0.0069,0,0,0,0,0,0,-0.0389,-0.0381,-0.0386,-0.0324,-0.0309,-0.0277,-0.0236,-0.0222,-0.0196,-0.019,-0.011,-0.0096,-0.0046,0.0009,0.0022,0.002,0.0043,0.0155,0.0156,0.0156,0.0071,0.0066,0.0062,0,0,0,0,0,-0.0392,-0.0403,-0.0387,-0.0379,-0.0317,-0.0278,-0.0266,-0.0216,-0.0197,-0.0192,-0.0134,-0.0099,0.0021,0.0013,0.0028,0.0028,0.0155,0.0155,0.0156,0.0073,0.0067,0.0062,0,0,0,0,0,0,-0.044,-0.0395,-0.0375,-0.0371,-0.0333,-0.0266,-0.0258,-0.0224,-0.0175,-0.0169,-0.0096,-0.0078,-0.0038,0.0009,-0.0002,0.0067,0.0094,0.0098,0.0026,0.0021,0.0016,-0.0002,0.0047,0,0,0,0,0,-0.0455,-0.0453,-0.0399,-0.0398,-0.0383,-0.0323,-0.0302,-0.0269,-0.0217,-0.0194,-0.0137,-0.0076,-0.0023,0.0008,0.0059,0.0096,0.0145,0.0107,0.0102,0.0098,0.0095,0.0163,0.0163,0.0158,0.0158,0.0158,0,0,-0.0472,-0.0449,-0.0446,-0.0408,-0.0374,-0.0361,-0.0309,-0.0285,-0.0269,-0.0187,-0.0151,-0.0094,-0.0018,0.0024,0.0047,0.0062,0.0126,0.0098,0.0094,0.0094,0.0163,0.0164,0.0164,0.0158,0.0158,0.0158,0,0,-0.0513,-0.0486,-0.0501,-0.0475,-0.0437,-0.0395,-0.0394,-0.0332,-0.03,-0.026,-0.0196,-0.0142,-0.0065,-0.0006,0.0032,0.0033,0.0094,0.0048,0.0013,0.0078,0.0078,0.008,0.0138,0.0146,0.0049,0.0049,0.0049,0,-0.0538,-0.0546,-0.0498,-0.0505,-0.0489,-0.0418,-0.0424,-0.0381,-0.031,-0.0283,-0.0262,-0.0136,-0.0077,-0.0012,-0.0012,0.002,0.0065,0.0024,0.007,0.0072,0.0075,0.0135,0.0144,0.0044,0.0045,0.0045,0.0046,0,-0.0587,-0.0593,-0.0599,-0.0582,-0.0556,-0.0551,-0.0487,-0.0457,-0.041,-0.0357,-0.0289,-0.0202,-0.0125,-0.0098,-0.0055,-0.0004,0.0023,0.0049,0.0077,0.007,0.0134,0.0145,0.0039,0.004,0.0041,0.0042,0,0,-0.0642,-0.0638,-0.0639,-0.0649,-0.0598,-0.0583,-0.0554,-0.0501,-0.0479,-0.0402,-0.036,-0.0266,-0.0211,-0.0163,-0.0095,-0.0037,0.0018,0.0005,0.0011,0.0051,0.0158,0.0207,0.0225,0.0049,0.005,0.0051,0.0193,0,-0.0696,-0.0736,-0.0707,-0.0731,-0.0741,-0.0671,-0.0649,-0.0589,-0.0521,-0.0461,-0.0355,-0.0292,-0.0236,-0.02,-0.0133,-0.0013,0.0043,-0.0023,0.0172,0.0177,0.0212,0.0238,0.0271,0.0403,0.0204,0.0206,0.0208,0,-0.075,-0.077,-0.0812,-0.0808,-0.0804,-0.0803,-0.0747,-0.0717,-0.0609,-0.0555,-0.0464,-0.0373,-0.0262,-0.0224,-0.0029,-0.0075,0.0027,0.0115,0.0123,0.0208,0.0247,0.0383,0.0431,0.0579,0.0225,0.0224,0.0222,0,-0.0814,-0.0838,-0.0878,-0.0877,-0.0858,-0.086,-0.0837,-0.075,-0.0718,-0.061,-0.0567,-0.0421,-0.0339,-0.0194,-0.0002,-0.0016,0.0212,0.022,0.036,0.0364,0.0452,0.0462,0.0658,0.0341,0.0341,0.034,0.034,0,-0.0879,-0.091,-0.0919,-0.0944,-0.0983,-0.0933,-0.0938,-0.0892,-0.0806,-0.0759,-0.0625,-0.0543,-0.0329,-0.0164,-0.0009,0.0223,0.0214,0.0363,0.041,0.0423,0.0428,0.0608,0.066,0.0346,0.0345,0.0344,0.0343,0,-0.0944,-0.095,-0.1004,-0.1015,-0.1022,-0.1047,-0.1023,-0.1011,-0.0925,-0.0856,-0.0823,-0.0622,-0.0395,-0.0173,0.0089,0.0221,0.0533,0.0505,0.0504,0.0548,0.0798,0.0842,0.1082,0.1176,0.0679,0.0681,0.0683,0,-0.0981,-0.1019,-0.107,-0.1107,-0.1122,-0.1144,-0.1151,-0.1084,-0.1055,-0.0889,-0.0856,-0.0626,-0.0432,-0.0027,0.0253,0.0547,0.0649,0.0724,0.0702,0.0832,0.0916,0.0939,0.1001,0.0786,0.0789,0.0791,0.0793,0,-0.1052,-0.1073,-0.1116,-0.1196,-0.1234,-0.1263,-0.1263,-0.1255,-0.1145,-0.1053,-0.0875,-0.0703,-0.0294,0.0087,0.0461,0.0624,0.0838,0.0774,0.0924,0.1031,0.1059,0.1163,0.0664,0.0811,0.0809,0.0808,0.0807,0.0806,-0.1097,-0.1149,-0.1206,-0.1279,-0.1325,-0.1358,-0.1362,-0.1316,-0.1246,-0.1067,-0.0896,-0.06,-0.0064,0.0489,0.0688,0.1075,0.1019,0.1167,0.1215,0.123,0.1311,0.0845,0.1031,0.1031,0.103,0.103,0.1029,0,-0.1138,-0.1196,-0.1277,-0.1355,-0.1408,-0.1412,-0.1411,-0.1367,-0.1263,-0.1051,-0.0832,-0.0238,0.0285,0.0749,0.1322,0.1512,0.1541,0.1585,0.1631,0.1678,0.1292,0.1287,0.152,0.152,0.1519,0.1519,0.1519,0.1519,-0.1161,-0.1245,-0.1291,-0.1396,-0.1445,-0.1469,-0.1457,-0.1363,-0.1206,-0.0841,-0.0495,-0.021,0.0462,0.1391,0.1895,0.192,0.2078,0.2039,0.2135,0.1864,0.1828,0.1794,0.1803,0.214,0.2141,0.2506,0.251,0.2513]}],[{"header":{"parameterUnit":"m.s-1","parameterCategory":2,"la1":30.2991,"la2":30.254,"lo1":-89.0895,"lo2":-89.0444,"dy":0.0017,"dx":0.0017,"nx":28,"ny":28,"refTime":"2023-11-02T09:00:00:Z","depth":"2","parameterNumber":2,"parameterNumberName":"U-component_of_CURRENTS"},"data":[0,0,0,0,0,0,0,0,0,0,0,0,0,0,0,0,0,0,0,0,0,0,0,0,0,0,0,0,0,0,0,0,0,0,0,0,0,0,0,0,0,0,0,0,0,0,0,0,0,0,0,0,0,0,0,0,0,0,-0.2585,-0.2585,0,-0.2619,-0.2619,-0.2619,-0.2594,-0.2593,-0.2592,-0.2592,-0.257,-0.257,-0.257,0,0,0,0,0,0,0,0,0,0,0,0,0,-0.2505,-0.2507,-0.2585,-0.2585,-0.2586,-0.2619,-0.2619,-0.2619,-0.2594,-0.2593,-0.2592,-0.2591,-0.2569,-0.257,-0.257,0,0,0,0,0,0,0,0,0,0,0,0,0,-0.2538,-0.2507,-0.2585,-0.2579,-0.2579,-0.2619,-0.2619,-0.2619,-0.2595,-0.2593,-0.2592,-0.2591,-0.2569,-0.257,-0.257,-0.26,0,0,-0.2571,-0.2571,0,0,0,0,0,0,0,0,-0.2536,-0.254,-0.2579,-0.2579,-0.258,-0.2603,-0.2583,-0.2611,-0.2595,-0.2586,-0.2591,-0.259,-0.2578,-0.2578,-0.2585,-0.2599,-0.2598,-0.2571,-0.2572,-0.2572,-0.2572,0,0,0,0,0,0,0,-0.2534,-0.2539,-0.2596,-0.258,-0.258,-0.2578,-0.258,-0.2589,-0.2587,-0.2587,-0.2586,-0.2594,-0.2577,-0.2584,-0.2584,-0.2597,-0.2571,-0.2572,-0.2572,-0.2572,-0.2622,-0.2623,0,0,0,0,0,0,-0.2535,-0.2537,-0.2595,-0.2597,-0.2556,-0.258,-0.2583,-0.2595,-0.2588,-0.2586,-0.2595,-0.2592,-0.2584,-0.2583,-0.2583,-0.2616,-0.2572,-0.2572,-0.2572,-0.2621,-0.2623,-0.2624,0,0,0,0,0,0,-0.2534,-0.254,-0.2594,-0.2569,-0.2576,-0.2583,-0.2596,-0.2596,-0.2602,-0.2595,-0.2591,-0.26,-0.2583,-0.2582,-0.2596,-0.2615,-0.2572,-0.2573,-0.262,-0.2622,-0.2623,-0.2683,0,0,0,0,0,0,-0.2531,-0.254,-0.2548,-0.257,-0.2577,-0.2622,-0.2598,-0.2598,-0.261,-0.2607,-0.2599,-0.2595,-0.2582,-0.2596,-0.2597,-0.2614,-0.2573,-0.2618,-0.2621,-0.2623,-0.2679,-0.2686,-0.2692,0,0,0,0,0,-0.2528,-0.2546,-0.2548,-0.2555,-0.2589,-0.2623,-0.2627,-0.2625,-0.2612,-0.2623,-0.2618,-0.2596,-0.2609,-0.2598,-0.2598,-0.2616,-0.2617,-0.262,-0.2622,-0.2677,-0.2685,-0.2692,0,0,0,0,0,0,-0.2515,-0.2547,-0.2549,-0.2575,-0.2599,-0.2619,-0.2629,-0.2632,-0.2639,-0.2632,-0.2616,-0.2614,-0.2632,-0.2619,-0.2607,-0.2637,-0.2608,-0.261,-0.2649,-0.2656,-0.2663,-0.2664,-0.2573,0,0,0,0,0,-0.2519,-0.2536,-0.2569,-0.2587,-0.2601,-0.2617,-0.2629,-0.2635,-0.2645,-0.2646,-0.2643,-0.2638,-0.2646,-0.2646,-0.2649,-0.267,-0.2649,-0.268,-0.2687,-0.2692,-0.2694,-0.2685,-0.2691,-0.2632,-0.2632,-0.2632,0,0,-0.2517,-0.2537,-0.2546,-0.2585,-0.26,-0.2633,-0.262,-0.2646,-0.2671,-0.2644,-0.2668,-0.2664,-0.2657,-0.2679,-0.2685,-0.2669,-0.2698,-0.2695,-0.27,-0.2699,-0.2688,-0.2694,-0.2699,-0.2634,-0.2633,-0.2633,0,0,-0.2528,-0.2543,-0.2564,-0.2593,-0.2627,-0.2643,-0.2654,-0.2683,-0.269,-0.2722,-0.2707,-0.2716,-0.2726,-0.2727,-0.2728,-0.2773,-0.2734,-0.277,-0.2802,-0.2794,-0.2798,-0.2802,-0.2781,-0.2782,-0.277,-0.2771,-0.2771,0,-0.2523,-0.2555,-0.2576,-0.2611,-0.2632,-0.2651,-0.2683,-0.2707,-0.2736,-0.2744,-0.2733,-0.2754,-0.275,-0.2774,-0.279,-0.2788,-0.2768,-0.2773,-0.2802,-0.2805,-0.2808,-0.2785,-0.2785,-0.2774,-0.2773,-0.2773,-0.2773,0,-0.2555,-0.2583,-0.2599,-0.2646,-0.2678,-0.2706,-0.2747,-0.2774,-0.2782,-0.2797,-0.2822,-0.2823,-0.2827,-0.2834,-0.2828,-0.2851,-0.2826,-0.2813,-0.2781,-0.2817,-0.2791,-0.279,-0.2778,-0.2777,-0.2776,-0.2775,0,0,-0.2527,-0.2604,-0.2607,-0.2631,-0.2696,-0.272,-0.2774,-0.2817,-0.2841,-0.2864,-0.2887,-0.2908,-0.2896,-0.2897,-0.289,-0.289,-0.2899,-0.2863,-0.2861,-0.2839,-0.2869,-0.2779,-0.2769,-0.2887,-0.2888,-0.2888,-0.2841,0,-0.2536,-0.2594,-0.2638,-0.269,-0.2719,-0.2766,-0.2815,-0.2859,-0.2884,-0.2914,-0.292,-0.2937,-0.2924,-0.2925,-0.2927,-0.2909,-0.29,-0.2912,-0.2839,-0.2836,-0.275,-0.2767,-0.2565,-0.25,-0.2841,-0.2841,-0.2841,0,-0.2543,-0.2581,-0.2631,-0.2704,-0.2723,-0.2763,-0.2825,-0.287,-0.2926,-0.2948,-0.2967,-0.297,-0.2985,-0.2964,-0.2943,-0.2948,-0.2913,-0.2894,-0.2891,-0.2785,-0.2746,-0.252,-0.2486,-0.2839,-0.2839,-0.2839,-0.284,0,-0.2487,-0.257,-0.2601,-0.2628,-0.2722,-0.2752,-0.2797,-0.2867,-0.29,-0.2956,-0.2976,-0.2997,-0.2993,-0.2974,-0.2933,-0.2938,-0.2895,-0.2893,-0.2777,-0.277,-0.2571,-0.2546,-0.2869,-0.2869,-0.2869,-0.2869,-0.2869,0,-0.2465,-0.2487,-0.2576,-0.2593,-0.2637,-0.2715,-0.2763,-0.2817,-0.2888,-0.2913,-0.297,-0.2981,-0.2994,-0.2971,-0.294,-0.2846,-0.2892,-0.278,-0.2752,-0.2586,-0.2564,-0.2837,-0.2834,-0.2867,-0.2868,-0.2868,-0.2868,0,-0.2388,-0.2447,-0.2488,-0.2583,-0.2609,-0.2634,-0.2732,-0.2758,-0.2844,-0.2877,-0.2893,-0.2957,-0.2926,-0.2918,-0.2879,-0.2829,-0.277,-0.2722,-0.2521,-0.2471,-0.2652,-0.2653,-0.2598,-0.2594,-0.2591,-0.2589,-0.2587,0,-0.2351,-0.2365,-0.2455,-0.2465,-0.2502,-0.2558,-0.259,-0.2709,-0.2737,-0.2843,-0.2837,-0.2856,-0.2819,-0.2743,-0.2668,-0.2583,-0.2668,-0.2353,-0.2332,-0.2645,-0.2625,-0.263,-0.2635,-0.2092,-0.2086,-0.2081,-0.2077,0,-0.2266,-0.23,-0.2323,-0.2357,-0.2387,-0.2433,-0.2489,-0.2513,-0.2633,-0.2666,-0.2682,-0.2671,-0.2622,-0.2445,-0.2359,-0.2288,-0.2358,-0.2251,-0.2613,-0.2199,-0.2166,-0.2147,-0.2169,-0.2033,-0.2038,-0.2041,-0.2043,-0.2045,-0.2176,-0.2171,-0.2197,-0.2216,-0.2251,-0.2264,-0.2244,-0.2312,-0.2331,-0.2332,-0.2437,-0.2348,-0.2345,-0.21,-0.1996,-0.192,-0.2079,-0.1987,-0.2002,-0.2023,-0.198,-0.1945,-0.1762,-0.1764,-0.1766,-0.1769,-0.177,0,-0.2047,-0.2045,-0.2051,-0.2057,-0.2028,-0.2109,-0.213,-0.2072,-0.2023,-0.2072,-0.2049,-0.1838,-0.1728,-0.1734,-0.1549,-0.152,-0.1516,-0.1458,-0.145,-0.1493,-0.1532,-0.1465,-0.1109,-0.1107,-0.1105,-0.1104,0,0,-0.1967,-0.1913,-0.1921,-0.1822,-0.1822,-0.1731,-0.1705,-0.1647,-0.164,-0.1538,-0.15,-0.1624,-0.1677,-0.1394,-0.133,-0.1189,-0.1331,-0.1131,-0.1658,-0.1691,-0.1727,-0.1828,-0.1773,0,0,0,0,0]},{"header":{"parameterUnit":"m.s-1","parameterCategory":2,"la1":30.2991,"la2":30.254,"lo1":-89.0895,"lo2":-89.0444,"dy":0.0017,"dx":0.0017,"nx":28,"ny":28,"refTime":"2023-11-02T09:00:00:Z","depth":"2","parameterNumber":3,"parameterNumberName":"V-component_of_CURRENTS"},"data":[0,0,0,0,0,0,0,0,0,0,0,0,0,0,0,0,0,0,0,0,0,0,0,0,0,0,0,0,0,0,0,0,0,0,0,0,0,0,0,0,0,0,0,0,0,0,0,0,0,0,0,0,0,0,0,0,0,0,-0.0296,-0.0295,0,-0.0191,-0.0189,-0.0188,-0.0117,-0.0117,-0.0116,-0.0116,0.0015,0.0018,0.0021,0,0,0,0,0,0,0,0,0,0,0,0,0,-0.0369,-0.0368,-0.0296,-0.0295,-0.0294,-0.0191,-0.0189,-0.0188,-0.0117,-0.0117,-0.0116,-0.0116,0.0014,0.0018,0.0022,0,0,0,0,0,0,0,0,0,0,0,0,0,-0.0307,-0.0368,-0.0296,-0.0247,-0.0242,-0.0191,-0.0189,-0.0187,-0.0117,-0.0117,-0.0116,-0.0116,0.0013,0.0018,0.0022,0.0041,0,0,0.0037,0.0039,0,0,0,0,0,0,0,0,-0.031,-0.0304,-0.0256,-0.0251,-0.0245,-0.0168,-0.0167,-0.011,-0.0117,-0.0163,-0.0116,-0.0115,-0.0045,-0.0036,-0.0015,0.0047,0.0053,0.0037,0.004,0.0042,0.0043,0,0,0,0,0,0,0,-0.0315,-0.0307,-0.0253,-0.0255,-0.0248,-0.0208,-0.0199,-0.0156,-0.0106,-0.0159,-0.0154,-0.0145,-0.0042,-0.002,-0.0011,0.0055,0.0037,0.0041,0.0044,0.0046,0.0164,0.0164,0,0,0,0,0,0,-0.0335,-0.0312,-0.0256,-0.025,-0.0279,-0.0207,-0.0197,-0.0192,-0.0107,-0.0094,-0.0145,-0.0142,-0.0028,-0.0017,-0.0006,0.0026,0.0042,0.0046,0.0049,0.0164,0.0164,0.0164,0,0,0,0,0,0,-0.0337,-0.0331,-0.026,-0.0279,-0.0268,-0.0207,-0.0201,-0.019,-0.0169,-0.0098,-0.0084,-0.0137,-0.0027,-0.0013,0.0033,0.0031,0.0049,0.0053,0.0163,0.0164,0.0164,0.0087,0,0,0,0,0,0,-0.034,-0.0333,-0.0338,-0.0281,-0.0268,-0.0239,-0.0202,-0.0188,-0.0165,-0.016,-0.0086,-0.0073,-0.0026,0.0025,0.0037,0.0038,0.0057,0.0163,0.0164,0.0164,0.0089,0.0085,0.0081,0,0,0,0,0,-0.0343,-0.0354,-0.0339,-0.0332,-0.0276,-0.024,-0.023,-0.0183,-0.0166,-0.0161,-0.0108,-0.0075,0.0037,0.0029,0.0043,0.0045,0.0163,0.0163,0.0164,0.0091,0.0086,0.0081,0,0,0,0,0,0,-0.0387,-0.0346,-0.0329,-0.0327,-0.0291,-0.0229,-0.0222,-0.0191,-0.0145,-0.0141,-0.0073,-0.0056,-0.0017,0.0026,0.0015,0.0083,0.0106,0.0109,0.0046,0.0041,0.0037,0.002,0.0061,0,0,0,0,0,-0.0401,-0.04,-0.0351,-0.0351,-0.0337,-0.0282,-0.0263,-0.0233,-0.0184,-0.0164,-0.0111,-0.0053,-0.0003,0.0026,0.0074,0.011,0.0155,0.0122,0.0118,0.0114,0.0112,0.0177,0.0178,0.0166,0.0166,0.0166,0,0,-0.0418,-0.0397,-0.0395,-0.0361,-0.0329,-0.0316,-0.0269,-0.0248,-0.0231,-0.0157,-0.0122,-0.007,0.0002,0.0043,0.0065,0.0079,0.0141,0.0115,0.0111,0.0111,0.0178,0.0179,0.018,0.0167,0.0167,0.0167,0,0,-0.0455,-0.0433,-0.0446,-0.0422,-0.0386,-0.0348,-0.0347,-0.029,-0.026,-0.0222,-0.0163,-0.0112,-0.0039,0.0017,0.0054,0.0057,0.0113,0.0071,0.0042,0.0105,0.0106,0.0107,0.016,0.0167,0.0074,0.0073,0.0073,0,-0.0479,-0.0486,-0.0444,-0.0449,-0.0433,-0.0369,-0.0373,-0.0332,-0.0267,-0.0241,-0.0223,-0.0104,-0.0049,0.0016,0.0017,0.0047,0.0087,0.0051,0.0098,0.01,0.0103,0.0157,0.0166,0.007,0.007,0.0071,0.0071,0,-0.0522,-0.0527,-0.0533,-0.0516,-0.0492,-0.0487,-0.0426,-0.0399,-0.0356,-0.0307,-0.0242,-0.016,-0.0088,-0.0061,-0.0021,0.0031,0.0053,0.0078,0.0104,0.0099,0.0157,0.0167,0.0065,0.0066,0.0067,0.0068,0,0,-0.0574,-0.0568,-0.0569,-0.0577,-0.0529,-0.0515,-0.0485,-0.0435,-0.0415,-0.0342,-0.0303,-0.0212,-0.0163,-0.0117,-0.0053,0.0004,0.0057,0.0042,0.0047,0.0082,0.0189,0.0224,0.0239,0.0088,0.0089,0.009,0.0218,0,-0.0622,-0.0657,-0.0629,-0.0648,-0.0656,-0.0592,-0.0569,-0.0513,-0.045,-0.0395,-0.0295,-0.0236,-0.0183,-0.0151,-0.0084,0.0027,0.0082,0.002,0.0199,0.0204,0.0227,0.0252,0.0211,0.0324,0.0228,0.023,0.0232,0,-0.067,-0.0688,-0.0724,-0.0718,-0.0714,-0.0712,-0.066,-0.0631,-0.0531,-0.0481,-0.0395,-0.0312,-0.0206,-0.0169,0.0014,-0.0029,0.0067,0.015,0.0158,0.0225,0.0259,0.0317,0.0347,0.025,0.0248,0.0247,0.0246,0,-0.073,-0.075,-0.0785,-0.0783,-0.0764,-0.0765,-0.0744,-0.0663,-0.0634,-0.0533,-0.0495,-0.0356,-0.0282,-0.0142,0.0036,0.0025,0.0237,0.0247,0.0369,0.0373,0.0392,0.0395,0.0365,0.0365,0.0364,0.0364,0.0364,0,-0.0789,-0.0818,-0.0824,-0.0847,-0.0884,-0.0836,-0.0842,-0.0798,-0.072,-0.068,-0.055,-0.0478,-0.0273,-0.012,0.0028,0.024,0.0237,0.0372,0.0414,0.0364,0.0363,0.0341,0.0337,0.0369,0.0368,0.0367,0.0366,0,-0.0851,-0.0855,-0.0904,-0.0913,-0.092,-0.0946,-0.0925,-0.0916,-0.0836,-0.0777,-0.0747,-0.056,-0.0352,-0.0139,0.0107,0.0232,0.0426,0.0496,0.0421,0.0452,0.0518,0.0508,0.0643,0.0646,0.0648,0.065,0.0651,0,-0.0886,-0.0921,-0.0969,-0.1005,-0.1019,-0.1042,-0.1051,-0.0988,-0.0965,-0.0817,-0.079,-0.0579,-0.0406,-0.0029,0.0229,0.0505,0.0497,0.0608,0.0583,0.0522,0.0549,0.0536,0.0524,0.0577,0.0578,0.0579,0.0579,0,-0.0954,-0.0975,-0.1015,-0.1093,-0.1131,-0.116,-0.1164,-0.116,-0.1062,-0.0981,-0.0827,-0.0674,-0.0303,0.0014,0.0363,0.0508,0.0562,0.0629,0.0608,0.0508,0.047,0.0492,0.0481,0.0584,0.0584,0.0583,0.0583,0.0583,-0.1001,-0.105,-0.1104,-0.1176,-0.1222,-0.1257,-0.1264,-0.1226,-0.1168,-0.1011,-0.0864,-0.0603,-0.0301,0.0209,0.0452,0.066,0.0656,0.0697,0.0691,0.0686,0.065,0.0618,0.0753,0.0754,0.0754,0.0754,0.0755,0,-0.1044,-0.11,-0.1177,-0.1253,-0.1306,-0.1312,-0.1316,-0.1276,-0.1188,-0.1006,-0.0816,-0.0475,-0.0113,0.019,0.054,0.0749,0.0712,0.076,0.0678,0.0672,0.0667,0.0626,0.0725,0.0726,0.0726,0.0727,0,0,-0.1069,-0.1149,-0.1192,-0.1297,-0.1347,-0.1375,-0.1367,-0.1278,-0.1139,-0.0937,-0.0734,-0.0462,-0.009,0.015,0.0411,0.0588,0.0569,0.0587,0.0588,0.0456,0.0448,0.0609,0.0538,0,0,0,0,0]}],[{"header":{"parameterUnit":"m.s-1","parameterCategory":2,"la1":30.2991,"la2":30.254,"lo1":-89.0895,"lo2":-89.0444,"dy":0.0017,"dx":0.0017,"nx":28,"ny":28,"refTime":"2023-11-02T09:00:00:Z","depth":"4","parameterNumber":2,"parameterNumberName":"U-component_of_CURRENTS"},"data":[0,0,0,0,0,0,0,0,0,0,0,0,0,0,0,0,0,0,0,0,0,0,0,0,0,0,0,0,0,0,0,0,0,0,0,0,0,0,0,0,0,0,0,0,0,0,0,0,0,0,0,0,0,0,0,0,0,0,-0.1799,-0.18,0,-0.1862,-0.1863,-0.1864,-0.1897,-0.1897,-0.1897,-0.1898,-0.1952,-0.1953,-0.1954,0,0,0,0,0,0,0,0,0,0,0,0,0,-0.1716,-0.1718,-0.1799,-0.18,-0.1801,-0.1862,-0.1863,-0.1864,-0.1897,-0.1897,-0.1898,-0.1898,-0.1951,-0.1953,-0.1954,0,0,0,0,0,0,0,0,0,0,0,0,0,-0.1762,-0.1718,-0.1799,-0.1826,-0.1829,-0.1862,-0.1863,-0.1864,-0.1897,-0.1897,-0.1898,-0.1898,-0.1951,-0.1953,-0.1954,-0.196,0,0,-0.196,-0.1961,0,0,0,0,0,0,0,0,-0.1759,-0.1764,-0.1821,-0.1824,-0.1828,-0.1874,-0.1854,-0.1896,-0.1897,-0.187,-0.1898,-0.1898,-0.1926,-0.193,-0.1939,-0.1962,-0.1965,-0.196,-0.1961,-0.1962,-0.1963,0,0,0,0,0,0,0,-0.1756,-0.1762,-0.1823,-0.1822,-0.1826,-0.1839,-0.1845,-0.1862,-0.1894,-0.1872,-0.1875,-0.1885,-0.1927,-0.1937,-0.194,-0.1965,-0.196,-0.1962,-0.1963,-0.1964,-0.2064,-0.2066,0,0,0,0,0,0,-0.1751,-0.1759,-0.1821,-0.1825,-0.1795,-0.184,-0.1847,-0.1857,-0.1894,-0.19,-0.1884,-0.1886,-0.1933,-0.1938,-0.1942,-0.202,-0.1962,-0.1964,-0.1965,-0.2063,-0.2065,-0.2067,0,0,0,0,0,0,-0.1749,-0.1756,-0.1818,-0.1794,-0.1803,-0.1841,-0.1852,-0.1858,-0.1898,-0.1903,-0.1909,-0.192,-0.1934,-0.1939,-0.1987,-0.2019,-0.1965,-0.1967,-0.2061,-0.2064,-0.2066,-0.2131,0,0,0,0,0,0,-0.1746,-0.1754,-0.1776,-0.1794,-0.1805,-0.1858,-0.1852,-0.186,-0.1902,-0.1906,-0.1936,-0.194,-0.1934,-0.1984,-0.1989,-0.2021,-0.1968,-0.2059,-0.2062,-0.2065,-0.2127,-0.2135,-0.2142,0,0,0,0,0,-0.1743,-0.1766,-0.1776,-0.1785,-0.1828,-0.186,-0.1867,-0.1893,-0.1904,-0.1928,-0.1952,-0.194,-0.2006,-0.1988,-0.1992,-0.2026,-0.2058,-0.2061,-0.2065,-0.2123,-0.2133,-0.2142,0,0,0,0,0,0,-0.1743,-0.1772,-0.1784,-0.1816,-0.1846,-0.1867,-0.1895,-0.1912,-0.195,-0.1963,-0.1964,-0.197,-0.2022,-0.2017,-0.1997,-0.2063,-0.2028,-0.2033,-0.2071,-0.2081,-0.2088,-0.2085,-0.197,0,0,0,0,0,-0.1752,-0.1777,-0.1805,-0.1834,-0.1852,-0.188,-0.1903,-0.1923,-0.1951,-0.197,-0.1992,-0.2014,-0.2035,-0.2054,-0.2071,-0.2111,-0.2088,-0.2135,-0.2142,-0.2149,-0.215,-0.2145,-0.2152,-0.2078,-0.2078,-0.2078,0,0,-0.1762,-0.178,-0.1797,-0.1836,-0.1862,-0.1898,-0.1895,-0.1941,-0.1978,-0.1969,-0.2035,-0.2047,-0.2053,-0.2097,-0.2119,-0.2101,-0.2159,-0.2153,-0.2159,-0.2157,-0.2149,-0.2156,-0.2162,-0.208,-0.208,-0.208,0,0,-0.1782,-0.181,-0.1836,-0.1867,-0.1913,-0.1931,-0.1952,-0.1995,-0.2025,-0.2082,-0.2083,-0.2117,-0.2158,-0.2165,-0.2172,-0.2234,-0.2201,-0.2244,-0.2282,-0.2278,-0.2283,-0.2288,-0.2268,-0.227,-0.2247,-0.2247,-0.2247,0,-0.1794,-0.1827,-0.1851,-0.1886,-0.1916,-0.195,-0.1989,-0.2026,-0.2082,-0.2106,-0.2114,-0.2175,-0.2187,-0.2223,-0.2248,-0.2251,-0.2237,-0.2246,-0.2287,-0.2291,-0.2294,-0.2272,-0.2274,-0.2251,-0.225,-0.225,-0.2249,0,-0.1825,-0.1866,-0.1887,-0.1939,-0.1977,-0.2018,-0.2066,-0.2115,-0.2154,-0.218,-0.2239,-0.2257,-0.2284,-0.23,-0.2297,-0.2334,-0.2311,-0.2296,-0.226,-0.2306,-0.2279,-0.228,-0.2256,-0.2254,-0.2253,-0.2252,0,0,-0.1805,-0.1891,-0.1901,-0.1934,-0.2009,-0.2037,-0.2111,-0.2168,-0.221,-0.2267,-0.2311,-0.2357,-0.2362,-0.237,-0.2371,-0.2377,-0.2396,-0.2357,-0.2355,-0.233,-0.2377,-0.2222,-0.2207,-0.239,-0.239,-0.2391,-0.2348,0,-0.182,-0.1886,-0.1931,-0.2003,-0.2038,-0.2099,-0.216,-0.2221,-0.227,-0.2325,-0.2349,-0.2392,-0.2389,-0.2408,-0.2416,-0.2403,-0.2401,-0.2408,-0.2341,-0.2339,-0.219,-0.2203,-0.2393,-0.2348,-0.2348,-0.2348,-0.2348,0,-0.1823,-0.1868,-0.1939,-0.2027,-0.2051,-0.2107,-0.2196,-0.2253,-0.2332,-0.2371,-0.2414,-0.2432,-0.2464,-0.2451,-0.2444,-0.245,-0.2422,-0.2404,-0.2401,-0.2231,-0.2184,-0.2293,-0.2348,-0.2348,-0.2348,-0.2348,-0.2348,0,-0.1769,-0.1868,-0.1922,-0.1955,-0.2065,-0.2117,-0.2177,-0.2266,-0.2311,-0.2396,-0.2426,-0.2467,-0.2483,-0.247,-0.244,-0.2448,-0.2411,-0.2409,-0.2239,-0.2228,-0.2353,-0.2348,-0.2393,-0.2393,-0.2393,-0.2393,-0.2394,0,-0.1739,-0.1786,-0.1909,-0.1937,-0.2007,-0.2096,-0.2173,-0.2239,-0.2327,-0.2358,-0.2439,-0.2448,-0.249,-0.2473,-0.2446,-0.2328,-0.2408,-0.2237,-0.2203,-0.2382,-0.2381,-0.2353,-0.2349,-0.2392,-0.2392,-0.2392,-0.2393,0,-0.1661,-0.1743,-0.1812,-0.1941,-0.1982,-0.2032,-0.2158,-0.2195,-0.23,-0.234,-0.2365,-0.2435,-0.2405,-0.2413,-0.2382,-0.2304,-0.223,-0.2169,-0.2351,-0.2329,-0.2053,-0.2054,-0.1974,-0.1968,-0.1963,-0.1959,-0.1956,0,-0.1621,-0.1652,-0.1795,-0.1827,-0.1889,-0.1981,-0.2029,-0.2161,-0.2187,-0.2298,-0.2284,-0.2315,-0.2335,-0.2154,-0.2196,-0.2115,-0.2091,-0.2045,-0.206,-0.2034,-0.201,-0.2018,-0.2025,-0.1948,-0.1946,-0.1945,-0.1944,0,-0.1536,-0.1606,-0.1654,-0.173,-0.1793,-0.1854,-0.1931,-0.1938,-0.2061,-0.2183,-0.2131,-0.2107,-0.2067,-0.2033,-0.1978,-0.1929,-0.2074,-0.1992,-0.2003,-0.2016,-0.2001,-0.1983,-0.1996,-0.1926,-0.1929,-0.1931,-0.1932,0,-0.1464,-0.1478,-0.155,-0.1597,-0.1671,-0.1681,-0.1754,-0.1769,-0.1817,-0.1942,-0.1917,-0.1955,-0.2033,-0.1933,-0.1886,-0.182,-0.1798,-0.1743,-0.1766,-0.1786,-0.1744,-0.1698,-0.1489,0,0,0,0,0,-0.1379,-0.1369,-0.1404,-0.144,-0.1509,-0.1548,-0.1654,-0.1727,-0.1854,-0.1757,-0.1831,-0.1784,-0.1722,-0.1751,-0.1639,-0.1805,-0.1809,-0.167,-0.1759,-0.183,-0.185,-0.1819,0,0,0,0,0,0,-0.1312,-0.1337,-0.1348,-0.1293,-0.1285,-0.1338,-0.1398,-0.149,-0.1449,-0.1586,-0.1552,-0.1664,-0.1622,-0.1737,-0.1593,-0.1601,-0.1618,-0.1711,-0.1706,-0.1819,-0.1837,-0.1853,-0.1828,0,0,0,0,0]},{"header":{"parameterUnit":"m.s-1","parameterCategory":2,"la1":30.2991,"la2":30.254,"lo1":-89.0895,"lo2":-89.0444,"dy":0.0017,"dx":0.0017,"nx":28,"ny":28,"refTime":"2023-11-02T09:00:00:Z","depth":"4","parameterNumber":3,"parameterNumberName":"V-component_of_CURRENTS"},"data":[0,0,0,0,0,0,0,0,0,0,0,0,0,0,0,0,0,0,0,0,0,0,0,0,0,0,0,0,0,0,0,0,0,0,0,0,0,0,0,0,0,0,0,0,0,0,0,0,0,0,0,0,0,0,0,0,0,0,-0.0214,-0.0214,0,-0.0143,-0.0143,-0.0142,-0.0092,-0.0092,-0.0092,-0.0092,0.0009,0.0012,0.0014,0,0,0,0,0,0,0,0,0,0,0,0,0,-0.0255,-0.0255,-0.0214,-0.0214,-0.0213,-0.0144,-0.0143,-0.0141,-0.0092,-0.0092,-0.0092,-0.0092,0.0008,0.0011,0.0014,0,0,0,0,0,0,0,0,0,0,0,0,0,-0.0215,-0.0255,-0.0214,-0.0181,-0.0178,-0.0144,-0.0142,-0.0141,-0.0092,-0.0092,-0.0092,-0.0091,0.0007,0.0011,0.0015,0.003,0,0,0.0026,0.0027,0,0,0,0,0,0,0,0,-0.0217,-0.0213,-0.0187,-0.0183,-0.0179,-0.0128,-0.012,-0.0083,-0.0092,-0.0123,-0.0092,-0.0091,-0.0035,-0.0028,-0.0014,0.0035,0.0039,0.0026,0.0028,0.003,0.0031,0,0,0,0,0,0,0,-0.022,-0.0216,-0.0185,-0.0186,-0.0182,-0.0152,-0.0146,-0.0112,-0.008,-0.012,-0.0117,-0.0112,-0.0033,-0.0017,-0.0011,0.0041,0.0026,0.0029,0.0032,0.0033,0.0129,0.013,0,0,0,0,0,0,-0.0235,-0.0219,-0.0187,-0.0183,-0.02,-0.0152,-0.0145,-0.0143,-0.0081,-0.0072,-0.0112,-0.011,-0.0024,-0.0015,-0.0007,0.0021,0.003,0.0033,0.0036,0.0129,0.013,0.013,0,0,0,0,0,0,-0.0236,-0.0233,-0.019,-0.02,-0.0193,-0.0152,-0.015,-0.0142,-0.013,-0.0075,-0.0065,-0.0108,-0.0023,-0.0012,0.0022,0.0025,0.0035,0.0039,0.0129,0.0129,0.013,0.0073,0,0,0,0,0,0,-0.0238,-0.0234,-0.0241,-0.0201,-0.0193,-0.0177,-0.015,-0.0141,-0.0128,-0.0124,-0.0069,-0.0059,-0.0022,0.0017,0.0026,0.003,0.0041,0.0128,0.0129,0.013,0.0074,0.0072,0.0069,0,0,0,0,0,-0.024,-0.025,-0.0242,-0.0238,-0.0203,-0.0178,-0.0171,-0.0139,-0.0128,-0.0126,-0.0086,-0.0061,0.0028,0.002,0.0031,0.0036,0.0128,0.0129,0.0129,0.0076,0.0072,0.0069,0,0,0,0,0,0,-0.027,-0.0245,-0.0235,-0.0238,-0.0214,-0.017,-0.0168,-0.0146,-0.0113,-0.0111,-0.0059,-0.0046,-0.0015,0.0019,0.0009,0.0067,0.0083,0.0086,0.0038,0.0036,0.0033,0.0019,0.0044,0,0,0,0,0,-0.0283,-0.0286,-0.0253,-0.0257,-0.0248,-0.0211,-0.0198,-0.0177,-0.0142,-0.0128,-0.0088,-0.0043,-0.0003,0.0021,0.0058,0.0089,0.0124,0.0102,0.0099,0.0096,0.0094,0.0151,0.0153,0.0132,0.0132,0.0132,0,0,-0.0296,-0.0284,-0.0285,-0.0264,-0.0244,-0.0235,-0.0202,-0.0189,-0.0177,-0.0122,-0.0096,-0.0056,0.0002,0.0036,0.0054,0.0065,0.012,0.0097,0.0094,0.0093,0.0152,0.0154,0.0155,0.0133,0.0133,0.0133,0,0,-0.0324,-0.0314,-0.0325,-0.031,-0.0287,-0.026,-0.0261,-0.0221,-0.02,-0.0172,-0.0126,-0.0085,-0.0029,0.0019,0.005,0.0056,0.0099,0.0067,0.0048,0.0103,0.0105,0.0107,0.0147,0.0153,0.0071,0.0071,0.0071,0,-0.0342,-0.0351,-0.0324,-0.0328,-0.0319,-0.0276,-0.028,-0.0251,-0.0204,-0.0185,-0.0173,-0.0079,-0.0034,0.0022,0.0026,0.0049,0.0081,0.0052,0.0098,0.0101,0.0104,0.0145,0.0152,0.0068,0.0069,0.0069,0.0069,0,-0.0372,-0.0381,-0.0387,-0.0377,-0.0362,-0.036,-0.0317,-0.0299,-0.027,-0.0233,-0.0183,-0.0117,-0.006,-0.0036,-0.0003,0.0045,0.006,0.0081,0.0101,0.0103,0.0146,0.0154,0.0065,0.0065,0.0066,0.0067,0,0,-0.0408,-0.041,-0.0413,-0.0422,-0.0389,-0.0382,-0.036,-0.0324,-0.0312,-0.0256,-0.0227,-0.015,-0.0113,-0.0076,-0.0023,0.003,0.0077,0.0059,0.0063,0.0089,0.0189,0.0168,0.0177,0.0106,0.0107,0.0108,0.0206,0,-0.0441,-0.047,-0.0453,-0.0472,-0.048,-0.0437,-0.0422,-0.0382,-0.0338,-0.0298,-0.0217,-0.0172,-0.0127,-0.0103,-0.0042,0.0049,0.0099,0.0048,0.0192,0.0196,0.0171,0.0186,0.0113,0.0213,0.0215,0.0216,0.0217,0,-0.0472,-0.0489,-0.0521,-0.0526,-0.0525,-0.0529,-0.0497,-0.0478,-0.0403,-0.0367,-0.03,-0.0235,-0.0145,-0.0114,0.0042,0.0006,0.0087,0.0158,0.0164,0.0171,0.0193,0.0216,0.0234,0.0233,0.0232,0.023,0.0229,0,-0.051,-0.0534,-0.0566,-0.0567,-0.0562,-0.0571,-0.0562,-0.0505,-0.0488,-0.0412,-0.0387,-0.027,-0.0213,-0.0092,0.0054,0.0049,0.0222,0.0237,0.0297,0.0296,0.0309,0.0306,0.0341,0.0341,0.034,0.034,0.034,0,-0.0543,-0.0573,-0.0597,-0.0617,-0.0658,-0.0627,-0.0645,-0.0616,-0.0563,-0.054,-0.0434,-0.0384,-0.0205,-0.0082,0.0044,0.0197,0.0219,0.0294,0.0323,0.0282,0.0275,0.0315,0.0311,0.0344,0.0343,0.0342,0.0342,0,-0.0577,-0.0592,-0.0641,-0.0666,-0.0682,-0.0712,-0.0719,-0.0718,-0.0664,-0.0629,-0.0607,-0.0459,-0.0298,-0.0119,0.0089,0.0177,0.0328,0.0376,0.0311,0.0334,0.0366,0.0358,0.0447,0.0447,0.0447,0.0447,0.0448,0,-0.0594,-0.0626,-0.0693,-0.0733,-0.0757,-0.0794,-0.0813,-0.0778,-0.0766,-0.0671,-0.0653,-0.0496,-0.0381,-0.0096,0.0082,0.032,0.035,0.0415,0.0396,0.0359,0.0379,0.037,0.0362,0.0448,0.0448,0.0448,0.0448,0,-0.063,-0.0664,-0.0706,-0.0792,-0.0842,-0.0883,-0.0907,-0.0902,-0.0842,-0.08,-0.067,-0.0509,-0.0325,-0.0101,0.0086,0.0254,0.0366,0.0418,0.0418,0.0401,0.0361,0.0378,0.037,0.0448,0.0448,0.0448,0.0448,0,-0.066,-0.0703,-0.0766,-0.0837,-0.0907,-0.0946,-0.0953,-0.0918,-0.0891,-0.0774,-0.0733,-0.0518,-0.0386,-0.0135,0.0037,0.0201,0.0236,0.0274,0.0283,0.0284,0.0205,0.0128,0.0171,0,0,0,0,0,-0.0676,-0.0726,-0.0802,-0.0877,-0.0945,-0.0976,-0.0998,-0.0983,-0.0929,-0.0844,-0.078,-0.0602,-0.0321,-0.0195,-0.0032,0.002,0.0246,0.021,0.0288,0.0451,0.0451,0.0383,0,0,0,0,0,0,-0.0689,-0.0762,-0.08,-0.0889,-0.094,-0.1001,-0.1012,-0.0978,-0.0915,-0.0839,-0.0684,-0.0585,-0.0309,-0.041,-0.0034,0.0016,0.008,0.035,0.0352,0.0452,0.0451,0.0451,0.0381,0,0,0,0,0]}]]